map of CFB home
CFB - Airport
Location
City:  Cabo Frio, Rio de Janeiro, Brazil
Name:Cabo Frio International Airport
ICAO:SBCB
IATA:CFB

Details
Type:Airport (Aerodrome, Airfield)
Use:International (customs port of entry)
Latitude:2255'18"S (-22.921680)
Longitude:4204'27"W (-42.074268)
Datum:WGS 1984
Elevation:14 ft (4 m)
Variation:23.04W (WMM2015 magnetic declination)
-0.09 annual change
Runways:1
Longest:5577 × 98 ft (1700 × 30 m), paved

Time
Time Zone:UTC-3 (DST-2)
Local Time:

Weather
METAR:SBCB 072100Z 09004KT CAVOK 27/21 Q1010

Related Locations
Nearby:
Farthest:IWO: 12192 mi / 19621 km
Iwo Jima [Iwo Jima AB], Iwo Jima Island, 13, JP

Find:

   beyond  
but within

Other Information
Maps:
NOTAMs:
Links:
Sources:

  
flag of Brazil
flag of Rio de Janeiro
  

Sectional Chart

Flight Planning
at skyvector.com

Satellite Image

Google Maps Satellite view

 

Copyright © 2004-2016 Karl L. Swartz. All rights reserved.
The Great Circle Mapper name and logo are trademarks of the Great Circle Mapper.
All other trademarks mentioned herein belong to their respective owners.
Please see credits for attibutions and further copyright information.

  Follow gcmap on Facebook Follow gcmap on Twitter Follow gcmap on Google+ GCmap on LinkedIn

hCard Microformat

Geo Microformat